[[{"header":{"parameterUnit":"m.s-1","parameterCategory":2,"la1":30.2991,"la2":30.254,"lo1":-89.0895,"lo2":-89.0444,"dy":0.0017,"dx":0.0017,"nx":28,"ny":28,"refTime":"2025-06-02T09:00:00:Z","depth":"0","parameterNumber":2,"parameterNumberName":"U-component_of_CURRENTS"},"data":[0,0,0,0,0,0,0,0,0,0,0,0,0,0,0,0,0,0,0,0,0,0,0,0,0,0,0,0,0,0,0,0,0,0,0,0,0,0,0,0,0,0,0,0,0,0,0,0,0,0,0,0,0,0,0,0,0,0,0.1353,0.1353,0,0.1319,0.1319,0.1318,0.1289,0.1289,0.1288,0.1288,0.1326,0.1327,0.1328,0,0,0,0,0,0,0,0,0,0,0,0,0,0.1341,0.1342,0.1354,0.1353,0.1353,0.1319,0.1319,0.1318,0.1289,0.1289,0.1288,0.1288,0.1325,0.1327,0.1328,0,0,0,0,0,0,0,0,0,0,0,0,0,0.1331,0.1342,0.1354,0.1334,0.1332,0.1319,0.1319,0.1318,0.1289,0.1289,0.1288,0.1288,0.1325,0.1327,0.1329,0.1352,0,0,0.1335,0.1336,0,0,0,0,0,0,0,0,0.1332,0.1332,0.1337,0.1335,0.1333,0.1307,0.1328,0.1333,0.1289,0.1306,0.1288,0.1287,0.1326,0.1328,0.1322,0.1354,0.1355,0.1335,0.1336,0.1337,0.1338,0,0,0,0,0,0,0,0.1333,0.1333,0.134,0.1337,0.1334,0.1308,0.1307,0.1328,0.1321,0.1304,0.1302,0.1298,0.1326,0.1321,0.1323,0.1356,0.1335,0.1337,0.1338,0.1339,0.1604,0.161,0,0,0,0,0,0,0.134,0.1334,0.1341,0.1339,0.133,0.1309,0.1307,0.1316,0.1319,0.1319,0.1298,0.1296,0.1317,0.1321,0.1325,0.1485,0.1337,0.1339,0.134,0.1599,0.1606,0.1612,0,0,0,0,0,0,0.134,0.1341,0.1343,0.1334,0.1333,0.131,0.132,0.1316,0.131,0.1314,0.1314,0.1296,0.1317,0.1322,0.137,0.1481,0.134,0.1342,0.1592,0.1601,0.1609,0.1721,0,0,0,0,0,0,0.134,0.1342,0.1356,0.1336,0.1333,0.1355,0.1321,0.1316,0.1308,0.1305,0.1313,0.1315,0.1317,0.1367,0.1372,0.1481,0.1343,0.1584,0.1596,0.1606,0.171,0.1732,0.1752,0,0,0,0,0,0.134,0.1382,0.1358,0.1359,0.1353,0.1356,0.1354,0.1335,0.1309,0.1323,0.1334,0.1315,0.1443,0.1371,0.1376,0.1489,0.1579,0.1593,0.1605,0.17,0.1728,0.1751,0,0,0,0,0,0,0.1407,0.1381,0.1355,0.1392,0.1375,0.1351,0.1366,0.1338,0.1352,0.1356,0.1345,0.1351,0.1458,0.1455,0.1375,0.161,0.1527,0.1542,0.1599,0.1624,0.1645,0.1617,0.1345,0,0,0,0,0,0.142,0.1433,0.1402,0.1433,0.1424,0.1387,0.1385,0.137,0.1373,0.1376,0.138,0.1429,0.1519,0.1546,0.1607,0.169,0.1672,0.1788,0.1808,0.1826,0.1815,0.1869,0.1891,0.1655,0.1655,0.1655,0,0,0.1458,0.1443,0.1454,0.1445,0.1427,0.1462,0.1386,0.1396,0.1442,0.1383,0.1453,0.149,0.156,0.1683,0.1733,0.1685,0.1896,0.1842,0.1856,0.1835,0.1884,0.1906,0.1926,0.1664,0.1663,0.1661,0,0,0.1545,0.152,0.1557,0.1552,0.1532,0.1518,0.1521,0.1499,0.1503,0.1564,0.1575,0.1655,0.1747,0.1824,0.1881,0.2051,0.2008,0.2103,0.2172,0.2226,0.2243,0.2258,0.229,0.2307,0.2107,0.2107,0.2107,0,0.159,0.1618,0.1573,0.1612,0.161,0.1552,0.1593,0.1616,0.1619,0.1624,0.1616,0.1775,0.1832,0.1991,0.2077,0.2097,0.2096,0.2058,0.2245,0.226,0.2273,0.2302,0.2319,0.2114,0.2113,0.2113,0.2112,0,0.1702,0.1719,0.1743,0.1767,0.1776,0.1793,0.18,0.1816,0.1808,0.1816,0.1924,0.1989,0.2065,0.2152,0.2173,0.233,0.229,0.2261,0.2158,0.2302,0.2326,0.2341,0.2124,0.2122,0.212,0.2118,0,0,0.1787,0.181,0.1813,0.1813,0.1836,0.1842,0.1933,0.1955,0.198,0.2037,0.208,0.2278,0.2246,0.231,0.2349,0.2421,0.2552,0.2386,0.2385,0.2376,0.265,0.2576,0.2584,0.2536,0.2539,0.2542,0.2634,0,0.1863,0.1932,0.1935,0.2,0.2016,0.1996,0.2065,0.2096,0.2114,0.215,0.2226,0.2302,0.2331,0.2361,0.2449,0.2513,0.2594,0.2528,0.2546,0.2547,0.2429,0.2601,0.2488,0.2555,0.2648,0.2651,0.2652,0,0.1953,0.1968,0.203,0.2037,0.2041,0.2089,0.2105,0.2162,0.2223,0.2235,0.2303,0.2327,0.2463,0.2451,0.2619,0.2564,0.2626,0.2675,0.2678,0.2568,0.2502,0.2429,0.2579,0.2427,0.2675,0.2673,0.2672,0,0.1966,0.2023,0.2047,0.2059,0.2093,0.2105,0.2122,0.2174,0.2189,0.2265,0.2273,0.24,0.2441,0.2555,0.265,0.2639,0.2797,0.2784,0.2782,0.2776,0.2663,0.2641,0.2625,0.2915,0.2914,0.2914,0.2914,0,0.2009,0.2025,0.2043,0.2052,0.2066,0.2097,0.2116,0.2148,0.2192,0.2213,0.229,0.2326,0.2466,0.2552,0.2658,0.2754,0.2801,0.2821,0.281,0.2705,0.2687,0.253,0.2473,0.2917,0.2917,0.2916,0.2915,0,0.2009,0.2028,0.2044,0.2064,0.2066,0.207,0.208,0.2091,0.2139,0.2169,0.2187,0.2278,0.2384,0.2507,0.2679,0.2736,0.2754,0.2875,0.2729,0.27,0.2548,0.2502,0.2414,0.2363,0.2905,0.2904,0.2903,0,0.2011,0.2021,0.2031,0.2018,0.2014,0.202,0.2015,0.2058,0.2068,0.2135,0.2143,0.2236,0.229,0.2486,0.2624,0.2779,0.2688,0.2744,0.2726,0.2544,0.2487,0.2378,0.2335,0.264,0.2637,0.2634,0.2632,0,0.1996,0.1995,0.1994,0.1967,0.1951,0.1942,0.194,0.1943,0.1993,0.2016,0.2045,0.209,0.2258,0.2339,0.2514,0.2617,0.2551,0.2697,0.256,0.233,0.216,0.2102,0.2555,0.2611,0.2613,0.2615,0.2616,0.2617,0.1964,0.1946,0.193,0.1894,0.1877,0.1843,0.1817,0.183,0.1831,0.1842,0.1928,0.196,0.2079,0.2309,0.2372,0.2361,0.2417,0.2316,0.2296,0.2216,0.21,0.2493,0.2493,0.2495,0.2496,0.2497,0.2498,0,0.1895,0.1873,0.1848,0.1797,0.1744,0.1761,0.1742,0.1709,0.1684,0.173,0.1746,0.1805,0.186,0.196,0.202,0.1954,0.1928,0.1889,0.1712,0.1714,0.2107,0.2024,0.1857,0.1857,0.1857,0.1857,0.1857,0.1858,0.1856,0.1798,0.1776,0.1667,0.163,0.1548,0.1523,0.1497,0.1513,0.1486,0.1493,0.1546,0.1598,0.1575,0.1502,0.1519,0.1384,0.132,0.134,0.1586,0.1623,0.1658,0.1564,0.1303,0.1303,0.0873,0.087,0.0867]},{"header":{"parameterUnit":"m.s-1","parameterCategory":2,"la1":30.2991,"la2":30.254,"lo1":-89.0895,"lo2":-89.0444,"dy":0.0017,"dx":0.0017,"nx":28,"ny":28,"refTime":"2025-06-02T09:00:00:Z","depth":"0","parameterNumber":3,"parameterNumberName":"V-component_of_CURRENTS"},"data":[0,0,0,0,0,0,0,0,0,0,0,0,0,0,0,0,0,0,0,0,0,0,0,0,0,0,0,0,0,0,0,0,0,0,0,0,0,0,0,0,0,0,0,0,0,0,0,0,0,0,0,0,0,0,0,0,0,0,-0.0055,-0.0055,0,-0.0136,-0.0137,-0.0138,-0.0198,-0.0199,-0.0199,-0.02,-0.0218,-0.0218,-0.0218,0,0,0,0,0,0,0,0,0,0,0,0,0,0.0011,0.001,-0.0054,-0.0056,-0.0057,-0.0136,-0.0137,-0.0138,-0.0198,-0.0199,-0.0199,-0.02,-0.0218,-0.0218,-0.0218,0,0,0,0,0,0,0,0,0,0,0,0,0,-0.0038,0.001,-0.0054,-0.0096,-0.0101,-0.0136,-0.0137,-0.0138,-0.0198,-0.0199,-0.0199,-0.02,-0.0218,-0.0218,-0.0218,-0.0201,0,0,-0.0218,-0.0218,0,0,0,0,0,0,0,0,-0.0035,-0.0041,-0.0089,-0.0093,-0.0099,-0.0158,-0.0121,-0.0156,-0.0198,-0.0161,-0.02,-0.0201,-0.0191,-0.0194,-0.0208,-0.0202,-0.0203,-0.0218,-0.0218,-0.0218,-0.0218,0,0,0,0,0,0,0,-0.0032,-0.0038,-0.0087,-0.009,-0.0096,-0.0124,-0.0132,-0.0128,-0.0169,-0.0164,-0.0169,-0.0178,-0.0194,-0.0208,-0.0209,-0.0203,-0.0218,-0.0218,-0.0218,-0.0218,-0.0036,-0.0032,0,0,0,0,0,0,-0.0019,-0.0034,-0.0084,-0.0089,-0.0069,-0.0124,-0.0133,-0.0138,-0.0171,-0.0177,-0.0177,-0.018,-0.0207,-0.0209,-0.0209,-0.0077,-0.0218,-0.0218,-0.0218,-0.0041,-0.0035,-0.003,0,0,0,0,0,0,-0.0018,-0.0023,-0.0081,-0.0064,-0.0073,-0.0124,-0.013,-0.0139,-0.0151,-0.0181,-0.0187,-0.018,-0.0208,-0.0209,-0.0182,-0.0083,-0.0218,-0.0218,-0.0047,-0.0039,-0.0033,0.0114,0,0,0,0,0,0,-0.0015,-0.0022,-0.0016,-0.0063,-0.0074,-0.0083,-0.0129,-0.014,-0.0156,-0.0161,-0.0185,-0.0188,-0.0209,-0.0181,-0.0181,-0.0085,-0.0218,-0.0053,-0.0043,-0.0035,0.0103,0.0125,0.0144,0,0,0,0,0,-0.0013,-0.0001,-0.0015,-0.0021,-0.0066,-0.0082,-0.0089,-0.0129,-0.0155,-0.0146,-0.0155,-0.0187,-0.0122,-0.0179,-0.018,-0.0081,-0.0057,-0.0046,-0.0036,0.0093,0.012,0.0143,0,0,0,0,0,0,0.0026,-0.0008,-0.0023,-0.0024,-0.0042,-0.0092,-0.0093,-0.012,-0.0125,-0.0127,-0.0159,-0.0161,-0.0083,-0.0105,-0.0167,0.0005,-0.0081,-0.007,0.0018,0.0043,0.0064,0.0074,-0.0218,0,0,0,0,0,0.004,0.0044,0.0006,0.0009,0.0,-0.0044,-0.0056,-0.0079,-0.0095,-0.0101,-0.0112,-0.0094,-0.0038,-0.0023,0.0005,0.0069,0.0025,0.0147,0.0168,0.0185,0.0198,0.0203,0.0224,0.0005,0.0005,0.0005,0,0,0.0055,0.0039,0.0039,0.0019,-0.0004,0.0021,-0.0053,-0.0061,-0.0012,-0.0097,-0.0035,-0.0033,-0.0004,0.0087,0.0122,0.0076,0.0228,0.0199,0.0213,0.0217,0.0217,0.0237,0.0255,0.0013,0.0011,0.001,0,0,0.0094,0.0074,0.0092,0.009,0.0071,0.0061,0.0066,0.0033,0.0047,0.0095,0.0082,0.0137,0.0178,0.0235,0.0271,0.0422,0.0336,0.0442,0.0549,0.0555,0.0571,0.0585,0.0553,0.0563,0.0451,0.0452,0.0452,0,0.0114,0.0137,0.0096,0.0123,0.0143,0.0092,0.0138,0.0157,0.0147,0.0182,0.0142,0.0251,0.027,0.0413,0.048,0.0472,0.0426,0.0445,0.0577,0.059,0.0601,0.0565,0.0574,0.046,0.0459,0.0458,0.0457,0,0.017,0.0198,0.0211,0.0245,0.0265,0.029,0.0312,0.0349,0.0357,0.0367,0.0475,0.0488,0.0545,0.0595,0.0585,0.0714,0.0637,0.0595,0.0499,0.0631,0.0586,0.0592,0.0472,0.0469,0.0467,0.0464,0,0,0.0195,0.0242,0.0252,0.0295,0.0334,0.0355,0.0465,0.054,0.0596,0.0628,0.0707,0.0836,0.0791,0.0831,0.0828,0.0855,0.0913,0.0764,0.0761,0.0707,0.088,0.0825,0.0825,0.0865,0.0868,0.0869,0.0811,0,0.0256,0.034,0.0357,0.0466,0.0514,0.054,0.0638,0.0705,0.0742,0.0801,0.0857,0.0916,0.09,0.0909,0.0949,0.0911,0.0937,0.093,0.0783,0.0779,0.0693,0.0835,0.0843,0.0792,0.0817,0.0817,0.0818,0,0.0314,0.0367,0.0475,0.0581,0.0603,0.0666,0.0794,0.0869,0.0957,0.0976,0.1036,0.1026,0.1114,0.1048,0.1066,0.1043,0.099,0.0953,0.0948,0.085,0.0738,0.0669,0.0801,0.0723,0.0827,0.0826,0.0826,0,0.0356,0.0458,0.0555,0.0589,0.0694,0.0763,0.0823,0.0917,0.098,0.1059,0.1075,0.1146,0.1152,0.1132,0.1071,0.1053,0.1037,0.0992,0.0902,0.0893,0.0853,0.0839,0.0875,0.1013,0.1013,0.1013,0.1013,0,0.0427,0.0501,0.0574,0.0625,0.0738,0.0794,0.0901,0.0967,0.104,0.1101,0.1138,0.1179,0.1165,0.1149,0.1094,0.1017,0.1051,0.0951,0.0899,0.0906,0.0897,0.0785,0.0746,0.1011,0.1011,0.1012,0.1012,0,0.0468,0.0515,0.0618,0.0725,0.0756,0.0833,0.0927,0.0992,0.1048,0.1122,0.1143,0.1197,0.1181,0.1147,0.1095,0.1028,0.0929,0.0926,0.092,0.0871,0.0717,0.0686,0.0689,0.0654,0.0829,0.0828,0.0827,0,0.0503,0.0556,0.0667,0.0714,0.0762,0.0856,0.0915,0.0992,0.1044,0.113,0.1164,0.1182,0.121,0.1118,0.1024,0.0926,0.0882,0.0835,0.0842,0.0745,0.0672,0.0678,0.065,0.0837,0.0836,0.0835,0.0834,0,0.0561,0.0589,0.0663,0.0745,0.0812,0.0896,0.0973,0.101,0.109,0.1142,0.1198,0.1229,0.1172,0.1105,0.0971,0.0899,0.08,0.0813,0.0737,0.0723,0.0711,0.0638,0.0802,0.0827,0.0828,0.0828,0.0829,0.0829,0.0587,0.0634,0.0701,0.0783,0.085,0.0917,0.0961,0.1029,0.1098,0.1168,0.1207,0.1259,0.1188,0.1034,0.0911,0.0706,0.0734,0.0642,0.062,0.064,0.0611,0.0744,0.0694,0.0693,0.0693,0.0693,0.0693,0,0.0613,0.0657,0.0731,0.0814,0.0866,0.0908,0.0987,0.1017,0.107,0.1166,0.1218,0.1251,0.1111,0.097,0.0712,0.0547,0.0529,0.0462,0.0492,0.0475,0.0613,0.0616,0.0517,0.0517,0.0518,0.0518,0.0518,0.0518,0.0627,0.0683,0.0716,0.0797,0.0847,0.0893,0.0925,0.098,0.105,0.1142,0.121,0.1278,0.1225,0.0794,0.0488,0.0409,0.0323,0.031,0.025,0.0346,0.0362,0.0377,0.0372,0.0224,0.0224,0.015,0.0149,0.0149]}],[{"header":{"parameterUnit":"m.s-1","parameterCategory":2,"la1":30.2991,"la2":30.254,"lo1":-89.0895,"lo2":-89.0444,"dy":0.0017,"dx":0.0017,"nx":28,"ny":28,"refTime":"2025-06-02T09:00:00:Z","depth":"2","parameterNumber":2,"parameterNumberName":"U-component_of_CURRENTS"},"data":[0,0,0,0,0,0,0,0,0,0,0,0,0,0,0,0,0,0,0,0,0,0,0,0,0,0,0,0,0,0,0,0,0,0,0,0,0,0,0,0,0,0,0,0,0,0,0,0,0,0,0,0,0,0,0,0,0,0,0.144,0.1439,0,0.1407,0.1407,0.1406,0.1378,0.1378,0.1377,0.1377,0.142,0.1422,0.1423,0,0,0,0,0,0,0,0,0,0,0,0,0,0.1424,0.1425,0.144,0.1439,0.1439,0.1407,0.1407,0.1406,0.1378,0.1378,0.1377,0.1377,0.142,0.1422,0.1423,0,0,0,0,0,0,0,0,0,0,0,0,0,0.1415,0.1425,0.144,0.1421,0.1419,0.1407,0.1407,0.1406,0.1378,0.1378,0.1377,0.1377,0.1419,0.1421,0.1424,0.1448,0,0,0.143,0.1431,0,0,0,0,0,0,0,0,0.1416,0.1416,0.1424,0.1422,0.142,0.1396,0.1417,0.1424,0.1378,0.1394,0.1377,0.1376,0.1419,0.1421,0.1416,0.145,0.1452,0.1431,0.1432,0.1433,0.1433,0,0,0,0,0,0,0,0.1417,0.1417,0.1427,0.1424,0.1421,0.1395,0.1394,0.1417,0.1412,0.1393,0.139,0.1386,0.1419,0.1414,0.1417,0.1453,0.143,0.1432,0.1434,0.1435,0.1617,0.1621,0,0,0,0,0,0,0.1424,0.1418,0.1428,0.1426,0.1416,0.1396,0.1395,0.1404,0.141,0.1409,0.1387,0.1385,0.141,0.1414,0.1419,0.1544,0.1433,0.1435,0.1436,0.1614,0.1618,0.1622,0,0,0,0,0,0,0.1424,0.1426,0.143,0.142,0.1419,0.1397,0.1408,0.1404,0.1398,0.1404,0.1405,0.1385,0.141,0.1415,0.1465,0.1542,0.1436,0.1438,0.161,0.1615,0.162,0.1734,0,0,0,0,0,0,0.1424,0.1426,0.1439,0.1421,0.142,0.1444,0.1408,0.1404,0.1396,0.1394,0.1404,0.1406,0.141,0.1462,0.1468,0.1543,0.144,0.1605,0.1612,0.1618,0.1726,0.1743,0.1757,0,0,0,0,0,0.1423,0.1465,0.144,0.1441,0.1438,0.1446,0.1444,0.1425,0.1397,0.1413,0.1424,0.1406,0.1509,0.1466,0.1472,0.155,0.1602,0.161,0.1618,0.1719,0.1739,0.1757,0,0,0,0,0,0,0.1489,0.1465,0.1438,0.1475,0.1462,0.1441,0.1457,0.1428,0.1443,0.1445,0.1436,0.1443,0.1521,0.1517,0.147,0.1625,0.1559,0.1568,0.1634,0.1653,0.1669,0.1624,0.1442,0,0,0,0,0,0.1501,0.1514,0.1486,0.1517,0.151,0.1475,0.1473,0.1459,0.1464,0.1467,0.1473,0.1502,0.1559,0.1587,0.1623,0.1695,0.1644,0.1756,0.1771,0.1784,0.1755,0.1728,0.1736,0.1648,0.1648,0.1647,0,0,0.1538,0.1524,0.1534,0.1528,0.1513,0.1533,0.1475,0.1486,0.1515,0.1474,0.1527,0.1549,0.1588,0.168,0.1717,0.1686,0.1796,0.1794,0.1805,0.1767,0.1737,0.1744,0.1751,0.1653,0.1652,0.1651,0,0,0.161,0.16,0.1622,0.1618,0.1598,0.1586,0.1588,0.1569,0.1573,0.1627,0.1617,0.1659,0.1745,0.1772,0.1806,0.1921,0.1873,0.197,0.2018,0.1995,0.2,0.2003,0.1993,0.1994,0.1984,0.1984,0.1985,0,0.165,0.1658,0.1635,0.1655,0.1647,0.1613,0.1628,0.1655,0.1659,0.1658,0.167,0.1752,0.1786,0.1868,0.1934,0.1953,0.1934,0.1944,0.2009,0.2012,0.2013,0.2,0.2001,0.1991,0.199,0.1989,0.1989,0,0.1718,0.1727,0.1748,0.1749,0.1758,0.1768,0.1777,0.1796,0.1797,0.1801,0.1861,0.1898,0.1935,0.1989,0.2013,0.2068,0.2051,0.2023,0.1948,0.2028,0.2012,0.201,0.2,0.1998,0.1996,0.1994,0,0,0.1783,0.1783,0.179,0.1771,0.1787,0.1791,0.1861,0.187,0.1881,0.1935,0.1942,0.2068,0.2048,0.2081,0.2103,0.2102,0.2139,0.209,0.2086,0.2055,0.2103,0.2058,0.2051,0.2127,0.2126,0.2126,0.21,0,0.1817,0.1837,0.1844,0.1873,0.1861,0.1864,0.1918,0.1943,0.1966,0.1985,0.202,0.207,0.2103,0.2131,0.214,0.2135,0.2133,0.2149,0.2048,0.2045,0.1975,0.2046,0.1855,0.1812,0.2098,0.2097,0.2097,0,0.185,0.1846,0.1861,0.1852,0.1852,0.1899,0.1906,0.1955,0.2001,0.2019,0.206,0.2081,0.2138,0.213,0.2143,0.2159,0.2141,0.212,0.2118,0.2017,0.1995,0.1773,0.1796,0.2092,0.2093,0.2093,0.2093,0,0.182,0.1846,0.1837,0.1843,0.1864,0.1886,0.1915,0.1961,0.1979,0.2041,0.2058,0.2104,0.2137,0.2123,0.2138,0.2147,0.2101,0.2098,0.2026,0.2024,0.1804,0.1782,0.2056,0.2056,0.2056,0.2056,0.2056,0,0.1799,0.18,0.1829,0.1825,0.1835,0.1869,0.1895,0.1936,0.1978,0.1994,0.2079,0.2083,0.2136,0.2132,0.2122,0.208,0.2096,0.2027,0.2008,0.1848,0.1832,0.2015,0.201,0.2055,0.2055,0.2055,0.2055,0,0.175,0.1767,0.1766,0.1799,0.1816,0.1834,0.1889,0.1903,0.1969,0.1991,0.2021,0.208,0.2094,0.2112,0.2081,0.2062,0.2014,0.1978,0.1804,0.1765,0.1959,0.1962,0.1909,0.1907,0.1906,0.1904,0.1903,0,0.1715,0.1705,0.1748,0.176,0.1783,0.1818,0.1838,0.1898,0.1906,0.1968,0.1961,0.2008,0.2003,0.1969,0.1925,0.1886,0.1945,0.1693,0.1668,0.1954,0.1941,0.1946,0.1951,0.1441,0.1436,0.1432,0.1429,0,0.1644,0.1675,0.1678,0.1708,0.1738,0.1752,0.1788,0.178,0.1839,0.1861,0.1857,0.1861,0.1849,0.172,0.1698,0.1649,0.1697,0.1613,0.192,0.1522,0.1513,0.1501,0.152,0.1394,0.1397,0.14,0.1402,0.1403,0.1604,0.1597,0.1618,0.1647,0.1676,0.1674,0.1673,0.1685,0.1676,0.1681,0.1704,0.1623,0.1563,0.1417,0.1379,0.1368,0.1489,0.1406,0.1417,0.1433,0.1397,0.1387,0.1238,0.1241,0.1243,0.1245,0.1246,0,0.1535,0.1549,0.1556,0.1571,0.1571,0.1635,0.1625,0.1593,0.1559,0.1512,0.1506,0.119,0.1111,0.1084,0.1008,0.1035,0.1027,0.0998,0.0955,0.0988,0.1018,0.0962,0.0688,0.0687,0.0686,0.0685,0,0,0.1494,0.1471,0.1475,0.1457,0.15,0.1496,0.1497,0.1449,0.1375,0.1171,0.104,0.1075,0.0997,0.0788,0.079,0.074,0.0869,0.0711,0.1147,0.1127,0.1156,0.1228,0.1175,0,0,0,0,0]},{"header":{"parameterUnit":"m.s-1","parameterCategory":2,"la1":30.2991,"la2":30.254,"lo1":-89.0895,"lo2":-89.0444,"dy":0.0017,"dx":0.0017,"nx":28,"ny":28,"refTime":"2025-06-02T09:00:00:Z","depth":"2","parameterNumber":3,"parameterNumberName":"V-component_of_CURRENTS"},"data":[0,0,0,0,0,0,0,0,0,0,0,0,0,0,0,0,0,0,0,0,0,0,0,0,0,0,0,0,0,0,0,0,0,0,0,0,0,0,0,0,0,0,0,0,0,0,0,0,0,0,0,0,0,0,0,0,0,0,-0.0119,-0.012,0,-0.0196,-0.0197,-0.0198,-0.0256,-0.0257,-0.0257,-0.0258,-0.0297,-0.0298,-0.0298,0,0,0,0,0,0,0,0,0,0,0,0,0,-0.0068,-0.0069,-0.0119,-0.012,-0.0121,-0.0196,-0.0197,-0.0198,-0.0256,-0.0257,-0.0257,-0.0258,-0.0297,-0.0298,-0.0299,0,0,0,0,0,0,0,0,0,0,0,0,0,-0.0112,-0.0069,-0.0119,-0.0159,-0.0163,-0.0195,-0.0197,-0.0198,-0.0256,-0.0257,-0.0258,-0.0258,-0.0297,-0.0298,-0.0299,-0.0289,0,0,-0.0301,-0.0302,0,0,0,0,0,0,0,0,-0.011,-0.0114,-0.0152,-0.0156,-0.0161,-0.0217,-0.0193,-0.0227,-0.0256,-0.0221,-0.0258,-0.0259,-0.0266,-0.0269,-0.0284,-0.0291,-0.0293,-0.0301,-0.0302,-0.0302,-0.0303,0,0,0,0,0,0,0,-0.0107,-0.0112,-0.015,-0.0153,-0.0158,-0.0188,-0.0195,-0.02,-0.0238,-0.0225,-0.0229,-0.0236,-0.0268,-0.0283,-0.0285,-0.0293,-0.0301,-0.0302,-0.0303,-0.0303,-0.0349,-0.0349,0,0,0,0,0,0,-0.0093,-0.0108,-0.0148,-0.0152,-0.0136,-0.0188,-0.0195,-0.0199,-0.0239,-0.0246,-0.0235,-0.0238,-0.0281,-0.0284,-0.0286,-0.0324,-0.0302,-0.0303,-0.0304,-0.0348,-0.0349,-0.035,0,0,0,0,0,0,-0.0091,-0.0095,-0.0145,-0.0132,-0.014,-0.0187,-0.0191,-0.02,-0.0213,-0.0248,-0.0254,-0.0239,-0.0282,-0.0285,-0.0285,-0.0324,-0.0304,-0.0304,-0.0347,-0.0348,-0.0349,-0.0368,0,0,0,0,0,0,-0.0089,-0.0094,-0.0088,-0.0131,-0.014,-0.0156,-0.019,-0.0201,-0.0216,-0.0221,-0.0253,-0.0258,-0.0282,-0.0284,-0.0286,-0.0324,-0.0305,-0.0346,-0.0348,-0.0349,-0.0366,-0.0369,-0.0372,0,0,0,0,0,-0.0087,-0.008,-0.0088,-0.0092,-0.0132,-0.0155,-0.0163,-0.02,-0.0215,-0.0215,-0.0236,-0.0257,-0.0295,-0.0283,-0.0287,-0.0327,-0.0346,-0.0347,-0.0349,-0.0365,-0.0369,-0.0372,0,0,0,0,0,0,-0.0061,-0.0086,-0.0096,-0.0098,-0.0119,-0.0165,-0.0171,-0.0191,-0.021,-0.0213,-0.0245,-0.025,-0.0272,-0.0284,-0.0271,-0.0344,-0.0332,-0.0334,-0.0344,-0.0347,-0.035,-0.0382,-0.0306,0,0,0,0,0,-0.0048,-0.0045,-0.0078,-0.0077,-0.0086,-0.0124,-0.0137,-0.016,-0.0184,-0.0194,-0.0214,-0.0245,-0.0281,-0.0298,-0.0317,-0.034,-0.0364,-0.0373,-0.0376,-0.0378,-0.0407,-0.0472,-0.0484,-0.0355,-0.0355,-0.0355,0,0,-0.0038,-0.005,-0.005,-0.007,-0.0092,-0.0133,-0.0134,-0.015,-0.0192,-0.0192,-0.0234,-0.024,-0.0284,-0.0322,-0.0336,-0.0338,-0.0419,-0.038,-0.0382,-0.041,-0.0475,-0.0488,-0.05,-0.0356,-0.0355,-0.0355,0,0,-0.0045,-0.0027,-0.0046,-0.0065,-0.0091,-0.0116,-0.0117,-0.0152,-0.0171,-0.0187,-0.0224,-0.0254,-0.0273,-0.0344,-0.0378,-0.0404,-0.0422,-0.0401,-0.0455,-0.0517,-0.0529,-0.054,-0.0549,-0.0561,-0.0415,-0.0415,-0.0415,0,-0.0036,-0.0074,-0.0053,-0.0091,-0.012,-0.0113,-0.0163,-0.0181,-0.021,-0.0229,-0.0196,-0.0279,-0.0304,-0.0412,-0.0429,-0.0418,-0.0427,-0.0438,-0.0523,-0.0535,-0.0546,-0.0553,-0.0565,-0.0416,-0.0416,-0.0416,-0.0416,0,-0.0088,-0.0114,-0.0123,-0.0175,-0.0187,-0.0218,-0.0243,-0.0249,-0.0247,-0.0271,-0.0317,-0.0342,-0.0393,-0.0418,-0.0432,-0.054,-0.0508,-0.0509,-0.0517,-0.056,-0.0563,-0.0577,-0.0417,-0.0417,-0.0417,-0.0416,0,0,-0.0119,-0.0154,-0.0167,-0.0201,-0.0238,-0.0256,-0.03,-0.0348,-0.037,-0.0381,-0.0425,-0.0502,-0.0482,-0.0522,-0.0547,-0.0622,-0.0689,-0.0597,-0.06,-0.061,-0.0784,-0.0654,-0.0655,-0.0697,-0.07,-0.0703,-0.074,0,-0.0189,-0.026,-0.0264,-0.0341,-0.0389,-0.0381,-0.0416,-0.0441,-0.0432,-0.0451,-0.0498,-0.0509,-0.0533,-0.052,-0.0615,-0.0655,-0.073,-0.0677,-0.0739,-0.074,-0.0625,-0.067,-0.0573,-0.0591,-0.0753,-0.0755,-0.0757,0,-0.0293,-0.0317,-0.0392,-0.0426,-0.0442,-0.0465,-0.0493,-0.0517,-0.0537,-0.0511,-0.0545,-0.0532,-0.0627,-0.0612,-0.0763,-0.0715,-0.0764,-0.0807,-0.0809,-0.0702,-0.0637,-0.0582,-0.0608,-0.0779,-0.0777,-0.0775,-0.0774,0,-0.0367,-0.0429,-0.0478,-0.0497,-0.0521,-0.0529,-0.0527,-0.0536,-0.0526,-0.0518,-0.0471,-0.0581,-0.0567,-0.0691,-0.0745,-0.0747,-0.0889,-0.0894,-0.0842,-0.0831,-0.0772,-0.075,-0.1033,-0.1033,-0.1033,-0.1033,-0.1033,0,-0.0472,-0.0521,-0.0499,-0.0528,-0.0546,-0.055,-0.0547,-0.0539,-0.0518,-0.0494,-0.0482,-0.0476,-0.0582,-0.0647,-0.0752,-0.081,-0.0888,-0.0867,-0.0849,-0.0766,-0.0744,-0.0934,-0.0922,-0.1034,-0.1034,-0.1034,-0.1033,0,-0.0552,-0.0562,-0.0601,-0.0593,-0.0581,-0.0577,-0.0515,-0.0502,-0.0456,-0.0417,-0.0387,-0.0392,-0.0438,-0.0543,-0.0705,-0.0754,-0.0861,-0.0872,-0.0728,-0.0693,-0.0762,-0.075,-0.0822,-0.0818,-0.0815,-0.0812,-0.0809,0,-0.0596,-0.0625,-0.0607,-0.0585,-0.0566,-0.0538,-0.0505,-0.0469,-0.0439,-0.0374,-0.0361,-0.0346,-0.0326,-0.0461,-0.0534,-0.0639,-0.0782,-0.0641,-0.065,-0.0773,-0.075,-0.0743,-0.0736,-0.0571,-0.0567,-0.0564,-0.0561,0,-0.0639,-0.0623,-0.062,-0.057,-0.0531,-0.0491,-0.0441,-0.0413,-0.0362,-0.0294,-0.024,-0.0203,-0.0226,-0.0247,-0.0321,-0.0417,-0.0606,-0.057,-0.0781,-0.0613,-0.0533,-0.051,-0.0514,-0.0532,-0.0535,-0.0537,-0.0538,-0.054,-0.063,-0.0612,-0.0577,-0.053,-0.0483,-0.0424,-0.0368,-0.0316,-0.0241,-0.0098,-0.0123,0.0016,-0.0024,-0.0004,-0.0148,-0.0292,-0.0339,-0.0421,-0.0435,-0.0451,-0.0389,-0.0305,-0.0247,-0.0249,-0.025,-0.0251,-0.0252,0,-0.0596,-0.0567,-0.0525,-0.0458,-0.0388,-0.0371,-0.0303,-0.0229,-0.0113,0.0038,0.0162,0.0252,0.0262,0.0126,0.0007,-0.0081,-0.0138,-0.0178,-0.0244,-0.0269,-0.0292,-0.0227,-0.0041,-0.0041,-0.0041,-0.0041,0,0,-0.0572,-0.0519,-0.0492,-0.0368,-0.0306,-0.0198,-0.0142,-0.0048,0.0072,0.0278,0.0423,0.0584,0.0413,0.037,0.0208,0.0075,-0.008,0.0052,-0.0093,-0.0171,-0.0193,-0.0392,-0.0312,0,0,0,0,0]}],[{"header":{"parameterUnit":"m.s-1","parameterCategory":2,"la1":30.2991,"la2":30.254,"lo1":-89.0895,"lo2":-89.0444,"dy":0.0017,"dx":0.0017,"nx":28,"ny":28,"refTime":"2025-06-02T09:00:00:Z","depth":"4","parameterNumber":2,"parameterNumberName":"U-component_of_CURRENTS"},"data":[0,0,0,0,0,0,0,0,0,0,0,0,0,0,0,0,0,0,0,0,0,0,0,0,0,0,0,0,0,0,0,0,0,0,0,0,0,0,0,0,0,0,0,0,0,0,0,0,0,0,0,0,0,0,0,0,0,0,0.009,0.0091,0,0.0226,0.0229,0.0231,0.0379,0.0381,0.0382,0.0384,0.0502,0.0504,0.0506,0,0,0,0,0,0,0,0,0,0,0,0,0,0.0063,0.0063,0.009,0.0091,0.0092,0.0226,0.0229,0.0231,0.0379,0.0381,0.0383,0.0384,0.0502,0.0504,0.0506,0,0,0,0,0,0,0,0,0,0,0,0,0,0.0131,0.0063,0.009,0.0177,0.0185,0.0226,0.0229,0.0232,0.0379,0.0381,0.0383,0.0385,0.0501,0.0503,0.0506,0.0477,0,0,0.0514,0.0515,0,0,0,0,0,0,0,0,0.0127,0.0133,0.0163,0.0171,0.018,0.0282,0.0263,0.0311,0.0378,0.0313,0.0384,0.0386,0.042,0.043,0.0461,0.0483,0.0488,0.0514,0.0516,0.0517,0.0518,0,0,0,0,0,0,0,0.0122,0.0128,0.0151,0.0164,0.0174,0.0245,0.0257,0.0274,0.0357,0.0318,0.0328,0.0331,0.0427,0.0458,0.0465,0.049,0.0514,0.0517,0.0518,0.0519,0.0592,0.0592,0,0,0,0,0,0,0.0082,0.0123,0.0147,0.0154,0.0151,0.0243,0.0256,0.0253,0.0358,0.0374,0.0329,0.0337,0.0452,0.0461,0.0469,0.0539,0.0517,0.052,0.0521,0.0592,0.0592,0.0592,0,0,0,0,0,0,0.0081,0.0083,0.0141,0.0137,0.0149,0.0239,0.0235,0.0254,0.0352,0.0365,0.0383,0.0414,0.0455,0.0465,0.052,0.0541,0.0521,0.0523,0.0591,0.0592,0.0592,0.0615,0,0,0,0,0,0,0.008,0.0082,0.0101,0.0134,0.0147,0.0204,0.0233,0.0255,0.0343,0.0358,0.0441,0.0452,0.0457,0.0516,0.0523,0.0544,0.0525,0.0591,0.0591,0.0592,0.0614,0.0617,0.0619,0,0,0,0,0,0.0078,0.0083,0.0101,0.0106,0.0158,0.0205,0.0221,0.0297,0.0345,0.0396,0.0439,0.0453,0.0525,0.0519,0.0527,0.0549,0.059,0.0591,0.0592,0.0613,0.0616,0.0619,0,0,0,0,0,0,0.0088,0.0098,0.0119,0.013,0.0182,0.0229,0.0277,0.033,0.0409,0.0431,0.0462,0.0474,0.0526,0.0532,0.0525,0.0569,0.0558,0.056,0.0571,0.0574,0.0577,0.0592,0.0527,0,0,0,0,0,0.009,0.0102,0.0128,0.0148,0.0169,0.0238,0.028,0.0328,0.0379,0.0423,0.0474,0.0509,0.0523,0.055,0.0566,0.0596,0.06,0.0613,0.0615,0.0617,0.0634,0.0637,0.0641,0.0595,0.0595,0.0595,0,0,0.0097,0.0107,0.0116,0.0153,0.0198,0.0222,0.0274,0.0341,0.0383,0.0414,0.0505,0.0527,0.0533,0.0562,0.0586,0.0581,0.0633,0.0618,0.062,0.0636,0.0638,0.0642,0.0646,0.0595,0.0595,0.0595,0,0,0.0089,0.0129,0.0127,0.0162,0.0219,0.0258,0.0289,0.0362,0.0431,0.0492,0.0515,0.0558,0.0601,0.0607,0.0609,0.0636,0.0644,0.0643,0.0673,0.0675,0.0679,0.0683,0.0696,0.0701,0.0645,0.0645,0.0645,0,0.011,0.0097,0.0144,0.0147,0.0184,0.0274,0.0295,0.0358,0.045,0.0501,0.0525,0.0601,0.0616,0.0637,0.0645,0.0644,0.065,0.0662,0.0679,0.0682,0.0686,0.0699,0.0703,0.0646,0.0646,0.0646,0.0646,0,0.0071,0.0092,0.0102,0.013,0.0182,0.0225,0.0292,0.0378,0.0465,0.0518,0.0604,0.0626,0.0676,0.0675,0.067,0.0701,0.07,0.068,0.0673,0.0692,0.0704,0.0709,0.0648,0.0647,0.0647,0.0647,0,0,0.0045,0.0071,0.0078,0.0106,0.0185,0.0225,0.0303,0.0398,0.047,0.0557,0.0639,0.0668,0.0718,0.0723,0.0731,0.0735,0.0761,0.0726,0.0726,0.0743,0.0781,0.0648,0.064,0.0744,0.0745,0.0745,0.0781,0,0.002,0.002,0.0044,0.0092,0.0118,0.022,0.0292,0.0393,0.049,0.059,0.0648,0.0718,0.0722,0.0759,0.0766,0.0769,0.0775,0.0755,0.0759,0.0759,0.064,0.0641,0.0748,0.0785,0.0786,0.0787,0.0787,0,-0.0026,-0.001,0.0016,0.0105,0.0128,0.0187,0.0345,0.0416,0.0556,0.0629,0.0713,0.0761,0.0819,0.0805,0.0835,0.0826,0.0814,0.0804,0.0804,0.0677,0.0633,0.0761,0.0795,0.0795,0.0794,0.0794,0.0793,0,-0.0048,-0.0017,0.0017,0.004,0.0138,0.0217,0.0315,0.0458,0.0538,0.068,0.0734,0.0809,0.0865,0.0866,0.0855,0.086,0.0857,0.0856,0.0726,0.0718,0.082,0.0815,0.086,0.086,0.086,0.086,0.086,0,-0.0065,-0.0043,0.0024,0.0049,0.0136,0.0231,0.0361,0.0459,0.0599,0.0659,0.0771,0.0784,0.0882,0.0885,0.0869,0.0802,0.0871,0.0736,0.0712,0.0828,0.0825,0.0823,0.0818,0.0862,0.0861,0.0861,0.0861,0,-0.0085,-0.0057,-0.0022,0.0082,0.0129,0.0216,0.0393,0.0464,0.0609,0.0687,0.0733,0.0809,0.0792,0.0837,0.0832,0.0807,0.0759,0.0708,0.0838,0.0821,0.0629,0.0626,0.0607,0.0603,0.0599,0.0596,0.0593,0,-0.0092,-0.0081,-0.0006,0.0036,0.0101,0.0236,0.0318,0.0474,0.052,0.0641,0.0633,0.0686,0.0705,0.0631,0.0655,0.0642,0.0612,0.0638,0.0638,0.0622,0.0601,0.0604,0.0605,0.0587,0.0586,0.0585,0.0584,0,-0.0112,-0.0092,-0.0063,0.0017,0.0101,0.0165,0.0289,0.032,0.0453,0.0557,0.0542,0.0559,0.0526,0.0523,0.0527,0.0495,0.066,0.0599,0.0607,0.0607,0.0597,0.0581,0.0587,0.057,0.0572,0.0574,0.0574,0,-0.0126,-0.0118,-0.0081,-0.0003,0.0063,0.0094,0.0169,0.0221,0.029,0.0423,0.0374,0.0414,0.0475,0.0435,0.0397,0.04,0.04,0.0432,0.045,0.0465,0.0395,0.0359,0.0239,0,0,0,0,0,-0.0129,-0.0128,-0.009,-0.0028,0.0022,0.0064,0.0127,0.0186,0.0283,0.0253,0.0342,0.0294,0.0294,0.0284,0.0254,0.0298,0.0385,0.0262,0.0427,0.0496,0.0512,0.0439,0,0,0,0,0,0,-0.0137,-0.0118,-0.0115,-0.0076,-0.0033,0.0006,0.0039,0.0096,0.0087,0.0191,0.0169,0.0271,0.024,0.0306,0.0247,0.0251,0.0347,0.0292,0.029,0.0488,0.0502,0.0514,0.0444,0,0,0,0,0]},{"header":{"parameterUnit":"m.s-1","parameterCategory":2,"la1":30.2991,"la2":30.254,"lo1":-89.0895,"lo2":-89.0444,"dy":0.0017,"dx":0.0017,"nx":28,"ny":28,"refTime":"2025-06-02T09:00:00:Z","depth":"4","parameterNumber":3,"parameterNumberName":"V-component_of_CURRENTS"},"data":[0,0,0,0,0,0,0,0,0,0,0,0,0,0,0,0,0,0,0,0,0,0,0,0,0,0,0,0,0,0,0,0,0,0,0,0,0,0,0,0,0,0,0,0,0,0,0,0,0,0,0,0,0,0,0,0,0,0,0.0496,0.0496,0,0.0528,0.0529,0.0529,0.0552,0.0552,0.0552,0.0552,0.0395,0.0391,0.0386,0,0,0,0,0,0,0,0,0,0,0,0,0,0.0361,0.0364,0.0495,0.0496,0.0497,0.0528,0.0529,0.0529,0.0552,0.0552,0.0552,0.0553,0.0397,0.0391,0.0386,0,0,0,0,0,0,0,0,0,0,0,0,0,0.0409,0.0365,0.0495,0.0512,0.0514,0.0528,0.0529,0.0529,0.0551,0.0552,0.0552,0.0553,0.0398,0.0392,0.0385,0.0336,0,0,0.0365,0.0362,0,0,0,0,0,0,0,0,0.0406,0.0413,0.0509,0.0511,0.0514,0.0537,0.0424,0.0455,0.0551,0.0536,0.0552,0.0553,0.0425,0.0417,0.0423,0.0329,0.0322,0.0364,0.036,0.0357,0.0356,0,0,0,0,0,0,0,0.0403,0.0411,0.0507,0.051,0.0513,0.0487,0.0495,0.043,0.0473,0.0537,0.0539,0.0545,0.0425,0.043,0.0419,0.0319,0.0365,0.0359,0.0354,0.0352,0.0131,0.0129,0,0,0,0,0,0,0.0406,0.0409,0.0506,0.0508,0.0461,0.049,0.0499,0.0528,0.0478,0.0473,0.0545,0.0546,0.0441,0.0427,0.0413,0.0332,0.0357,0.0351,0.0347,0.0133,0.0131,0.0129,0,0,0,0,0,0,0.0403,0.0415,0.0505,0.0458,0.0468,0.0493,0.0525,0.0529,0.0529,0.0486,0.0477,0.0541,0.0441,0.0422,0.034,0.0326,0.0348,0.0342,0.0135,0.0132,0.013,0.018,0,0,0,0,0,0,0.04,0.0415,0.0447,0.046,0.0471,0.0514,0.0525,0.0529,0.0533,0.0535,0.0479,0.0467,0.0439,0.0351,0.0334,0.0317,0.0337,0.0138,0.0134,0.0131,0.018,0.0179,0.0178,0,0,0,0,0,0.0395,0.0438,0.0449,0.0461,0.0513,0.0514,0.0517,0.0533,0.0532,0.0534,0.0483,0.0468,0.0317,0.0343,0.0324,0.0306,0.0139,0.0135,0.0131,0.0181,0.0179,0.0178,0,0,0,0,0,0,0.0406,0.0444,0.0457,0.0514,0.0512,0.0518,0.0534,0.0526,0.0494,0.0484,0.044,0.0422,0.0348,0.0307,0.0337,0.0228,0.0226,0.0218,0.0271,0.0268,0.0267,0.0314,0.0331,0,0,0,0,0,0.0422,0.0464,0.0474,0.052,0.052,0.0521,0.0526,0.052,0.0492,0.0482,0.0426,0.0366,0.0316,0.0278,0.022,0.0152,0.0152,0.0125,0.0124,0.0123,0.0145,0.0132,0.0133,0.0115,0.0115,0.0115,0,0,0.044,0.0467,0.0493,0.0524,0.053,0.0538,0.0525,0.0522,0.0524,0.046,0.0421,0.0353,0.0295,0.0231,0.0194,0.0195,0.0124,0.0118,0.0119,0.0141,0.0128,0.013,0.0132,0.0112,0.0113,0.0113,0,0,0.0473,0.0517,0.0546,0.0549,0.0549,0.0548,0.0542,0.0514,0.0502,0.0439,0.0405,0.0338,0.0231,0.0211,0.0186,0.0136,0.0119,0.009,0.0122,0.0108,0.0111,0.0114,0.0117,0.0119,0.009,0.009,0.009,0,0.0493,0.0535,0.0549,0.0565,0.0579,0.0552,0.0564,0.0551,0.0491,0.0472,0.0425,0.0298,0.024,0.0211,0.0188,0.0142,0.0124,0.0142,0.0113,0.0115,0.0117,0.012,0.0122,0.0092,0.0091,0.0091,0.0091,0,0.0525,0.0563,0.0576,0.0602,0.0618,0.0614,0.0603,0.0577,0.0532,0.0504,0.0427,0.0338,0.0266,0.0229,0.0189,0.0165,0.0145,0.0119,0.0134,0.0123,0.0125,0.0126,0.0094,0.0094,0.0093,0.0093,0,0,0.0549,0.0591,0.0601,0.0611,0.063,0.0635,0.0648,0.0639,0.0638,0.0541,0.0522,0.0419,0.0346,0.0312,0.0244,0.0224,0.0213,0.0167,0.0165,0.0202,0.0183,0.0153,0.0152,0.017,0.0171,0.0171,0.0181,0,0.0561,0.0601,0.0631,0.0664,0.0668,0.0678,0.0704,0.0694,0.065,0.061,0.0531,0.0465,0.0389,0.0326,0.0298,0.022,0.0217,0.0213,0.0161,0.0161,0.0161,0.0153,0.0172,0.0182,0.0182,0.0183,0.0183,0,0.0565,0.0592,0.0638,0.0679,0.0689,0.0733,0.0762,0.0764,0.0738,0.0688,0.0619,0.0533,0.0467,0.04,0.0316,0.0303,0.0253,0.0212,0.0211,0.0173,0.0133,0.0189,0.0186,0.0186,0.0185,0.0185,0.0185,0,0.0538,0.0589,0.0632,0.0648,0.07,0.0749,0.0783,0.0796,0.0793,0.0735,0.0696,0.0606,0.0534,0.0463,0.0338,0.0315,0.0265,0.0229,0.0179,0.0177,0.0185,0.0182,0.0214,0.0214,0.0214,0.0214,0.0214,0,0.0521,0.0547,0.0635,0.0655,0.0715,0.076,0.0818,0.0821,0.083,0.0811,0.0727,0.0659,0.0538,0.0468,0.0377,0.0277,0.0296,0.0199,0.0178,0.0201,0.02,0.0187,0.0184,0.0215,0.0215,0.0214,0.0214,0,0.0476,0.0531,0.0569,0.0663,0.0705,0.0751,0.0857,0.0873,0.088,0.0852,0.0824,0.0705,0.0581,0.05,0.0383,0.0323,0.0242,0.0218,0.0273,0.0252,0.0159,0.0158,0.016,0.0159,0.0159,0.0158,0.0157,0,0.0459,0.0474,0.058,0.0635,0.0698,0.0783,0.0841,0.0885,0.0887,0.085,0.0811,0.071,0.0611,0.0435,0.0352,0.0245,0.022,0.0214,0.0166,0.0175,0.0154,0.0154,0.0153,0.0156,0.0156,0.0156,0.0155,0,0.041,0.0459,0.0503,0.0615,0.0705,0.077,0.0851,0.0835,0.0849,0.0881,0.0744,0.064,0.0522,0.0375,0.0321,0.0231,0.0228,0.0204,0.0205,0.016,0.0169,0.0149,0.015,0.0152,0.0153,0.0153,0.0153,0,0.0387,0.0402,0.0483,0.0577,0.0681,0.0721,0.0762,0.0762,0.0762,0.0726,0.0674,0.0556,0.0511,0.0369,0.0297,0.0229,0.0192,0.0171,0.0172,0.0175,0.0166,0.0179,0.0158,0,0,0,0,0,0.0362,0.0375,0.0447,0.0527,0.0629,0.0696,0.0751,0.0774,0.0782,0.0676,0.0678,0.0552,0.0405,0.0328,0.0246,0.028,0.0196,0.0185,0.0176,0.0136,0.014,0.0122,0,0,0,0,0,0,0.0341,0.0392,0.0412,0.0481,0.0535,0.0619,0.0649,0.0655,0.0588,0.0593,0.0492,0.0535,0.0375,0.0441,0.0238,0.0225,0.0208,0.0148,0.0147,0.0134,0.0137,0.014,0.0124,0,0,0,0,0]}]]